Regional Weather Roundup
Issued by NWS

Home | Current Version | Previous Version | Graphics & Text | Print | Product List | Glossary On
Versions: 1 2 3 4 5 6 7 8 9 10 11 12 13 14 15 16 17 18 19 20 21 22 23 24 25 26 27 28 29 30 31 32 33 34 35 36 37 38 39 40 41 42 43 44 45 46 47 48 49 50
093
ASUS43 KDTX 271610
RWRMI
MICHIGAN HOURLY REGIONAL WEATHER ROUNDUP
NATIONAL WEATHER SERVICE DETROIT/PONTIAC MI
1200 PM EDT SAT MAY 27 2017

NOTE: "FAIR" INDICATES FEW OR NO CLOUDS BELOW 12,000 FEET WITH NO
SIGNIFICANT WEATHER AND/OR OBSTRUCTION TO VISIBILITY.

MIZ047>049-052>055-059>063-066>070-074>076-081>083-271700-
SOUTHEAST LOWER MICHIGAN

CITY           SKY/WX    TMP DP  RH WIND       PRES   REMARKS
ADRIAN         PTSUNNY   68  60  75 E5        29.92R
ALMA           SUNNY     69  55  60 CALM      29.92S
ANN ARBOR      PTSUNNY   71  56  58 NE5       29.92R
BAD AXE        PTSUNNY   67  56  66 E7        29.93F
CARO           SUNNY     70  57  63 E3        29.91F
DETROIT CITY   SUNNY     71  56  58 E5        29.94R
DETROIT        PTSUNNY   74  57  55 VRB3      29.94R
FLINT          MOSUNNY   70  53  54 E3        29.92S
GROSSE ILE     MOSUNNY   67  58  72 S7        29.93R
HILLSDALE      CLOUDY    66  55  68 E6        29.92F
HOWELL         CLOUDY    70  51  50 NE6       29.93S

CITY           SKY/WX    TMP DP  RH WIND       PRES   REMARKS
JACKSON        CLOUDY    69  57  65 SE6       29.93S
LAMBERTVILLE   CLOUDY    69  57  66 E7        29.92R
LANSING        MOSUNNY   72  53  51 CALM      29.93S
LAPEER         CLOUDY    68  54  62 NE3       29.93F
MASON          PTSUNNY   69  56  65 CALM      29.93S
MONROE         MOSUNNY   69  54  58 E7        29.93R
MT. CLEMENS    MOSUNNY   68  56  65 VRB3      29.93R
PONTIAC        PTSUNNY   69  52  54 SE5       29.92R
PORT HOPE        N/A     58  54  86 E10       29.92F
PORT HURON     CLOUDY    66  54  63 CALM      29.94R
TRI CITIES     MOSUNNY   71  58  63 VRB5      29.92F
MIDLAND        PTSUNNY   72  55  56 CALM      29.91S
TROY           CLOUDY    70  52  52 E7        29.95R
SAGINAW HB     MOSUNNY   72  52  49 CALM      29.92S
$$
MIZ043>046-050>051-056>058-064>065-071>073-077>080-271700-
SOUTHWEST LOWER MICHIGAN

CITY           SKY/WX    TMP DP  RH WIND       PRES   REMARKS
BATTLE CREEK   CLOUDY    69  56  62 S6        29.92F
BENTON HARBOR  PTSUNNY   70  59  68 CALM      29.91F
BIG RAPIDS     MOSUNNY   70  52  52 SE6       29.90F
COLDWATER      PTSUNNY   70  58  65 CALM      29.91F
FREMONT        FAIR      70  52  51 S5        29.91S
HOLLAND        MOSUNNY   72  56  57 VRB5      29.91F
GRAND RAPIDS   PTSUNNY   70  56  61 VRB5      29.92S
IONIA          FAIR      71  54  54 CALM      29.91F
KALAMAZOO      PTSUNNY   71  57  61 S3        29.91F
LUDINGTON      SUNNY     70  55  59 E6        29.89S
MARSHALL       MOSUNNY   70  57  63 CALM      29.91F
MOUNT PLEASANT PTSUNNY   69  54  59 CALM      29.91S
MUSKEGON       MOSUNNY   72  55  55 SW8       29.91S
SOUTH HAVEN    CLOUDY    69  61  74 W3        29.92S
$$
MIZ016>042-271700-
NORTHERN LOWER MICHIGAN

CITY           SKY/WX    TMP DP  RH WIND       PRES   REMARKS
ALPENA         SUNNY     71  53  52 SE10      29.91F
BEAVER ISLAND  SUNNY     66  51  58 NW3       29.89S
BELLAIRE       SUNNY     71  52  50 SW3       29.88F
CADILLAC       SUNNY     71  52  51 S6        29.90S
CHARLEVOIX     SUNNY     66  55  67 NW6       29.92S
FRANKFORT      SUNNY     69  54  58 W7        29.88S
GAYLORD        SUNNY     70  50  49 S6        29.90F
GRAYLING       MOSUNNY   70  52  52 E8        29.90F
HARBOR SPRINGS SUNNY     68  52  55 SW3       29.89F
HOUGHTON LAKE  SUNNY     71  53  52 SW6       29.91F
MANISTEE       SUNNY     72  55  55 VRB3      29.87F
OSCODA         SUNNY     67  51  55 SE6       29.92F
PELLSTON       SUNNY     70  53  54 SE3       29.89F
ROGERS CITY    SUNNY     65  56  70 NE5       29.91F
TRAVERSE CITY  MOSUNNY   70  50  49 N7        29.86F
$$
MIZ007>008-015-271700-
EASTERN UPPER MICHIGAN

CITY           SKY/WX    TMP DP  RH WIND       PRES   REMARKS
KINROSS        SUNNY     69  52  54 S8        29.89F
MACKINAC ISLAN SUNNY     66  53  62 S3        29.89S
NEWBERRY       SUNNY     67  51  55 SW13      29.86F
S. S. MARIE    MOSUNNY   70  55  59 S6        29.87F
MUNISING         N/A     74  56  53 S8        29.82S
$$
MIZ004>006-011>014-085-271700-
CENTRAL UPPER MICHIGAN

CITY           SKY/WX    TMP DP  RH WIND       PRES   REMARKS
MANISTIQUE     SUNNY     55  50  85 SE10      29.88S
ESCANABA       SUNNY     63  56  78 S8        29.87R
SAWYER-GWINN   MOSUNNY   70  57  64 SW16G24   29.85R
$$
MIZ001>003-009>011-084-271700-
WESTERN UPPER MICHIGAN

CITY           SKY/WX    TMP DP  RH WIND       PRES   REMARKS
IRON MOUNTAIN  CLOUDY    71  55  56 S13       29.84R
HOUGHTON       PTSUNNY   66  55  67 NW14      29.81R
COPPER HARBOR    N/A     49  45  86 E3        29.82R
IRONWOOD       PTSUNNY   67  46  47 NW8       29.86R
$$

ABBREVIATIONS USED IN REMARKS
   TC - TEMPERATURE IN CELSIUS
  WCI - WIND CHILL INDEX
   HX - HEAT INDEX
  VSB - VISIBILITY





USA.gov is the U.S. government's official web portal to all federal, state and local government web resources and services.